TimeCDT,TemperatureF,Dew PointF,Humidity,Sea Level PressureIn,VisibilityMPH,Wind Direction,Wind SpeedMPH,Gust SpeedMPH,PrecipitationIn,Events,Conditions,WindDirDegrees,DateUTC
12:15 AM,51.8,39.2,62,30.14,10.0,Calm,Calm,-,N/A,,Clear,0,2012-10-15 05:15:00
12:35 AM,51.8,39.2,62,30.14,10.0,Calm,Calm,-,N/A,,Clear,0,2012-10-15 05:35:00
12:55 AM,51.8,39.2,62,30.14,10.0,Calm,Calm,-,N/A,,Clear,0,2012-10-15 05:55:00
1:15 AM,48.2,37.4,66,30.14,10.0,Calm,Calm,-,N/A,,Clear,0,2012-10-15 06:15:00
1:35 AM,51.8,39.2,62,30.13,10.0,Calm,Calm,-,N/A,,Clear,0,2012-10-15 06:35:00
1:55 AM,51.8,39.2,62,30.13,10.0,Calm,Calm,-,N/A,,Clear,0,2012-10-15 06:55:00
2:15 AM,48.2,37.4,66,30.13,10.0,Calm,Calm,-,N/A,,Clear,0,2012-10-15 07:15:00
2:55 AM,51.8,39.2,62,30.12,10.0,Calm,Calm,-,N/A,,Clear,0,2012-10-15 07:55:00
3:15 AM,50.0,37.4,62,30.12,10.0,Calm,Calm,-,N/A,,Clear,0,2012-10-15 08:15:00
3:35 AM,46.4,39.2,76,30.11,10.0,Calm,Calm,-,N/A,,Clear,0,2012-10-15 08:35:00
3:55 AM,46.4,37.4,71,30.11,10.0,Calm,Calm,-,N/A,,Clear,0,2012-10-15 08:55:00
4:15 AM,46.4,39.2,76,30.11,10.0,Calm,Calm,-,N/A,,Clear,0,2012-10-15 09:15:00
4:55 AM,50.0,39.2,66,30.10,10.0,Calm,Calm,-,N/A,,Clear,0,2012-10-15 09:55:00
5:15 AM,46.4,37.4,71,30.10,10.0,Calm,Calm,-,N/A,,Clear,0,2012-10-15 10:15:00
5:55 AM,48.2,39.2,71,30.09,10.0,Calm,Calm,-,N/A,,Clear,0,2012-10-15 10:55:00
6:15 AM,44.6,37.4,76,30.10,10.0,Calm,Calm,-,N/A,,Clear,0,2012-10-15 11:15:00
6:35 AM,44.6,37.4,76,30.10,10.0,Calm,Calm,-,N/A,,Clear,0,2012-10-15 11:35:00
7:15 AM,46.4,39.2,76,30.09,10.0,Calm,Calm,-,N/A,,Clear,0,2012-10-15 12:15:00
7:35 AM,46.4,39.2,76,30.10,5.0,Calm,Calm,-,N/A,,Haze,0,2012-10-15 12:35:00
7:55 AM,46.4,39.2,76,30.09,2.5,Calm,Calm,-,N/A,,Haze,0,2012-10-15 12:55:00
8:15 AM,48.2,39.2,71,30.10,10.0,Calm,Calm,-,N/A,,Clear,0,2012-10-15 13:15:00
8:35 AM,50.0,41.0,71,30.10,10.0,Calm,Calm,-,N/A,,Clear,0,2012-10-15 13:35:00
8:55 AM,53.6,42.8,67,30.10,5.0,Calm,Calm,-,N/A,,Haze,0,2012-10-15 13:55:00
9:15 AM,53.6,42.8,67,30.10,10.0,Calm,Calm,-,N/A,,Clear,0,2012-10-15 14:15:00
9:35 AM,57.2,41.0,55,30.11,10.0,Calm,Calm,-,N/A,,Clear,0,2012-10-15 14:35:00
9:55 AM,59.0,41.0,51,30.11,10.0,Calm,Calm,-,N/A,,Clear,0,2012-10-15 14:55:00
10:15 AM,62.6,41.0,45,30.10,10.0,Calm,Calm,-,N/A,,Clear,0,2012-10-15 15:15:00
10:35 AM,64.4,41.0,42,30.10,10.0,WSW,4.6,-,N/A,,Clear,250,2012-10-15 15:35:00
10:55 AM,68.0,42.8,40,30.09,10.0,SSW,4.6,-,N/A,,Clear,210,2012-10-15 15:55:00
11:15 AM,71.6,41.0,33,30.08,10.0,WSW,5.8,-,N/A,,Clear,240,2012-10-15 16:15:00
11:55 AM,78.8,33.8,20,30.07,10.0,SW,13.8,-,N/A,,Clear,230,2012-10-15 16:55:00
12:15 PM,80.6,33.8,18,30.05,10.0,West,13.8,-,N/A,,Clear,260,2012-10-15 17:15:00
12:35 PM,80.6,32.0,17,30.04,10.0,WSW,13.8,17.3,N/A,,Clear,240,2012-10-15 17:35:00
1:15 PM,82.4,32.0,16,30.02,10.0,WSW,15.0,21.9,N/A,,Clear,240,2012-10-15 18:15:00
1:35 PM,82.4,32.0,16,30.00,10.0,SW,19.6,26.5,N/A,,Clear,220,2012-10-15 18:35:00
1:55 PM,82.4,32.0,16,29.99,10.0,SSW,17.3,-,N/A,,Clear,210,2012-10-15 18:55:00
2:35 PM,84.2,32.0,15,29.96,10.0,SW,15.0,25.3,N/A,,Clear,220,2012-10-15 19:35:00
2:55 PM,86.0,30.2,13,29.95,10.0,SW,15.0,24.2,N/A,,Clear,230,2012-10-15 19:55:00
3:15 PM,86.0,30.2,13,29.94,10.0,SW,18.4,25.3,N/A,,Clear,230,2012-10-15 20:15:00
3:35 PM,86.0,30.2,13,29.93,10.0,SSW,19.6,25.3,N/A,,Clear,200,2012-10-15 20:35:00
3:55 PM,86.0,30.2,13,29.92,10.0,SSW,17.3,25.3,N/A,,Clear,200,2012-10-15 20:55:00
4:15 PM,86.0,30.2,13,29.92,10.0,SSW,16.1,24.2,N/A,,Clear,210,2012-10-15 21:15:00
4:35 PM,86.0,30.2,13,29.91,10.0,SSW,16.1,24.2,N/A,,Clear,210,2012-10-15 21:35:00
4:55 PM,84.2,30.2,14,29.90,10.0,SSW,16.1,23.0,N/A,,Clear,210,2012-10-15 21:55:00
5:15 PM,84.2,32.0,15,29.90,10.0,SSW,18.4,-,N/A,,Clear,200,2012-10-15 22:15:00
5:35 PM,82.4,32.0,16,29.90,10.0,SSW,18.4,-,N/A,,Clear,210,2012-10-15 22:35:00
5:55 PM,82.4,32.0,16,29.90,10.0,SSW,17.3,-,N/A,,Clear,200,2012-10-15 22:55:00
6:15 PM,80.6,32.0,17,29.90,10.0,South,16.1,-,N/A,,Clear,190,2012-10-15 23:15:00
6:35 PM,78.8,32.0,18,29.90,10.0,South,15.0,18.4,N/A,,Clear,180,2012-10-15 23:35:00
6:55 PM,77.0,32.0,19,29.90,10.0,South,13.8,-,N/A,,Clear,180,2012-10-15 23:55:00
7:15 PM,73.4,33.8,23,29.90,10.0,South,12.7,-,N/A,,Clear,170,2012-10-16 00:15:00
7:35 PM,71.6,35.6,27,29.90,10.0,South,12.7,-,N/A,,Clear,170,2012-10-16 00:35:00
7:55 PM,71.6,35.6,27,29.90,10.0,South,11.5,-,N/A,,Clear,180,2012-10-16 00:55:00
8:15 PM,69.8,35.6,28,29.90,10.0,South,12.7,-,N/A,,Clear,180,2012-10-16 01:15:00
8:35 PM,69.8,35.6,28,29.91,10.0,South,13.8,-,N/A,,Clear,190,2012-10-16 01:35:00
8:55 PM,68.0,37.4,33,29.91,10.0,South,13.8,-,N/A,,Clear,180,2012-10-16 01:55:00
9:15 PM,66.2,39.2,37,29.91,10.0,South,11.5,-,N/A,,Clear,170,2012-10-16 02:15:00
9:35 PM,64.4,39.2,40,29.91,10.0,South,12.7,-,N/A,,Clear,170,2012-10-16 02:35:00
9:55 PM,64.4,41.0,42,29.91,10.0,South,13.8,-,N/A,,Clear,170,2012-10-16 02:55:00
10:15 PM,64.4,42.8,45,29.91,10.0,South,10.4,-,N/A,,Clear,170,2012-10-16 03:15:00
10:35 PM,64.4,44.6,49,29.91,10.0,South,11.5,-,N/A,,Clear,170,2012-10-16 03:35:00
11:15 PM,62.6,44.6,52,29.91,10.0,SSE,9.2,-,N/A,,Clear,150,2012-10-16 04:15:00
11:35 PM,60.8,44.6,55,29.90,10.0,SSE,10.4,-,N/A,,Clear,150,2012-10-16 04:35:00
11:55 PM,60.8,44.6,55,29.90,10.0,SSE,10.4,-,N/A,,Clear,160,2012-10-16 04:55:00